Location: Cambroso
(45.2833°N, 12.0850°E)
Time: 19:59:03
(UTC+00:00)

CZ-4B R/B - Pass Details

Date: 21 January 2021
Orbit: 387 x 458 km, 97.6° (Epoch: 04 March)

Event Time Altitude Azimuth Distance (km) Brightness Sun altitude
Exits shadow 17:22:15 - 10° (N) 2,202 4.7 -13.7°
Reaches altitude 10° 17:23:42 10° 9° (N) 1,586 3.9 -14.0°
Maximum altitude 17:27:05 74° 285° (WNW) 465 1.5 -14.6°
Drops below altitude 10° 17:30:21 10° 200° (SSW) 1,533 4.5 -15.1°
Sets 17:32:20 0° 198° (SSW) 2,382 5.5 -15.5°
